Погода в Шумилино

Беларусь     55°17′56″N   29°37′01″E
темп.,
°C
ветер,
м/с
пор.,
м/с
влажн.,
%
обл.,
%
осадки,
мм/ч
давл.,
гПа
погр.,
м
17 июня, чт
чт1700:00+12всв226743 0.0 102113
03:00+11св22785 0.0 102313
06:00+12в23800 0.0 102357
09:00+18всв23610 0.0 1024376
12:00+22в22500 0.0 10251121
15:00+23ю22450 0.0 10251411
18:00+23юв00480 0.0 10241136
21:00+18юв11695 0.0 102511
18 июня, пт
пт1800:00+15ю117520 0.0 102511
03:00+14вюв118257 0.0 102610
06:00+15юв11845 0.0 102714
09:00+20ююв22685 0.0 1026383
12:00+23ююв34565 0.0 10261196
15:00+24ю44535 0.0 10251426
18:00+24ю34615 0.0 1024996
21:00+19ююв33815 0.0 102444
19 июня, сб
сб1900:00+16ююв34900 0.0 102549
03:00+14ю22910 0.0 102531
06:00+15ююв25890 0.0 1025118
09:00+20ююв34715 0.0 1025441
12:00+24ююв45610 0.0 10241197
15:00+25ююв44560 0.0 10231402
18:00+24ююв44630 0.0 10221168
21:00+20ююв36850 0.0 1022120
20 июня, вс
вс2000:00+17ююв37930 0.0 1022121
03:00+16ююв34940 0.0 102261
06:00+17ююв25921 0.0 1022129
09:00+22ю35765 0.0 1022512
12:00+25ююв457142 0.6 10211218
15:00+24ююз4575100 4.1 1020936
18:00+25ююз35767 1.6 1019803
21:00+21ююв228594 3.0 101927
21 июня, пн
пн2100:00+19ююв359430 0.2 102076
03:00+18ююв359510 0.3 101984
06:00+18ююв23935 0.0 102073
09:00+23юв34765 0.0 1020420
12:00+26юв34615 0.0 10191013
15:00+28юв34485 0.0 10181298
18:00+28юв356099 0.0 1018603
21:00+22юв358311 0.0 101894